Location: Unspecified
(48.5670°N, 0.0000°E)
Time: 11:54:40
(UTC+00:00)

Tiros 1 - Pass Details

Date: 27 October 2020
Orbit: 630 x 664 km, 48.4° (Epoch: 03 December)

Event Time Altitude Azimuth Distance (km) Brightness Sun altitude
Exits shadow 03:46:42 29° 135° (SE) 1,167 8.7 -28.9°
Drops below altitude 10° 03:50:14 10° 87° (E) 2,008 10.6 -28.3°
Sets 03:52:46 0° 76° (ENE) 2,919 11.8 -27.9°
